| time (UTC) | temp F | wind direction | speed knots | gust knots | rain 1hr in | rain 24hr in | rain mn in | humidity % | barometer mb |
| 20260508185702 | 56 | 158 | 5.2 | 0.0 | 0.00 | 0.00 | 0.00 | 57 | 1007.0 |
| 20260508175701 | 58 | 158 | 5.2 | 0.0 | 0.00 | 0.00 | 0.00 | 57 | 1008.0 |
| 20260508165703 | 60 | 158 | 5.2 | 0.0 | 0.00 | 0.00 | 0.00 | 57 | 1008.0 |
| 20260508155702 | 62 | 158 | 5.2 | 0.0 | 0.00 | 0.00 | 0.00 | 57 | 1008.0 |
| 20260508145702 | 64 | 158 | 5.2 | 0.0 | 0.00 | 0.00 | 0.00 | 57 | 1008.0 |
| 20260508135702 | 66 | 158 | 5.2 | 0.0 | 0.00 | 0.00 | 0.00 | 57 | 1008.0 |
| 20260508125702 | 68 | 158 | 5.2 | 0.0 | 0.00 | 0.00 | 0.00 | 57 | 1008.0 |
| 20260508115701 | 62 | 113 | 6.1 | 0.0 | 0.00 | 0.00 | 0.00 | 51 | 1008.0 |
| 20260508105703 | 64 | 113 | 6.1 | 0.0 | 0.00 | 0.00 | 0.00 | 51 | 1009.0 |
| 20260508095702 | 66 | 113 | 6.1 | 0.0 | 0.00 | 0.00 | 0.00 | 51 | 1009.0 |
| 20260508085702 | 68 | 113 | 6.1 | 0.0 | 0.00 | 0.00 | 0.00 | 51 | 1009.0 |
| 20260508075701 | 70 | 113 | 6.1 | 0.0 | 0.00 | 0.00 | 0.00 | 51 | 1009.0 |
| 20260508065702 | 63 | 122 | 2.6 | 0.0 | 0.00 | 0.00 | 0.00 | 57 | 1010.0 |
| 20260508055703 | 65 | 122 | 2.6 | 0.0 | 0.00 | 0.00 | 0.00 | 57 | 1011.0 |
| 20260508045702 | 67 | 122 | 2.6 | 0.0 | 0.00 | 0.00 | 0.00 | 57 | 1011.0 |
| 20260508035702 | 59 | 109 | 1.7 | 0.0 | 0.00 | 0.00 | 0.00 | 70 | 1011.0 |
| 20260508025702 | 61 | 109 | 1.7 | 0.0 | 0.00 | 0.00 | 0.00 | 70 | 1011.0 |
| 20260508015702 | 50 | 111 | 2.6 | 0.0 | 0.00 | 0.00 | 0.00 | 79 | 1011.0 |
| 20260508005702 | 52 | 111 | 2.6 | 0.0 | 0.00 | 0.00 | 0.00 | 79 | 1011.0 |
| 20260507235703 | 54 | 111 | 2.6 | 0.0 | 0.00 | 0.00 | 0.00 | 79 | 1011.0 |
| 20260507225702 | 49 | 39 | 3.5 | 0.0 | 0.00 | 0.00 | 0.00 | 63 | 1011.0 |
| 20260507215702 | 51 | 39 | 3.5 | 0.0 | 0.00 | 0.00 | 0.00 | 63 | 1011.0 |
| 20260507205702 | 53 | 39 | 3.5 | 0.0 | 0.00 | 0.00 | 0.00 | 63 | 1011.0 |
| 20260507195701 | 55 | 39 | 3.5 | 0.0 | 0.00 | 0.00 | 0.00 | 63 | 1011.0 |